This is the latest recevied weather packets stored in our database for station/object WB0RXX. If no packets are shown the sender has not sent any weather packets the latest 10 day(s).
| Time | Temp. | Humidity | Pressure | Rain* | Wind** | Luminosity | Snow |
|---|---|---|---|---|---|---|---|
| 1777562404 | 6.67° C | 59% | 1020.4 hPa | 0 mm | - | - | - |
| 1777561803 | 5.56° C | 57% | 1020.4 hPa | 0 mm | - | - | - |
| 1777561203 | 5.56° C | 57% | 1020.5 hPa | 0 mm | - | - | - |
| 1777560603 | 5.56° C | 58% | 1020.5 hPa | 0 mm | - | - | - |
| 1777560020 | 5° C | 65% | 1020.5 hPa | 0 mm | - | - | - |
| 1777559403 | 4.44° C | 62% | 1020.5 hPa | 0 mm | - | - | - |
| 1777558803 | 4.44° C | 62% | 1020.5 hPa | 0 mm | - | - | - |
| 1777558204 | 4.44° C | 65% | 1020.4 hPa | 0 mm | - | - | - |
| 1777557605 | 3.89° C | 67% | 1020.3 hPa | 0 mm | - | - | - |
| 1777557004 | 3.89° C | 67% | 1020.4 hPa | 0 mm | - | - | - |
| 1777556418 | 3.33° C | 70% | 1020.4 hPa | 0 mm | - | - | - |
| 1777555804 | 3.33° C | 70% | 1020.3 hPa | 0 mm | - | - | - |
| 1777555220 | 2.78° C | 71% | 1020.4 hPa | 0 mm | - | - | - |
| 1777554604 | 2.78° C | 72% | 1020.4 hPa | 0 mm | - | - | - |
| 1777554004 | 2.22° C | 73% | 1020.3 hPa | 0 mm | - | - | - |
| 1777553403 | 2.22° C | 74% | 1020.4 hPa | 0 mm | - | - | - |
| 1777552819 | 1.67° C | 76% | 1020.4 hPa | 0 mm | - | - | - |
| 1777552204 | 1.67° C | 77% | 1020.3 hPa | 0 mm | - | - | - |
| 1777551604 | 1.11° C | 78% | 1020.3 hPa | 0 mm | - | - | - |
| 1777551003 | 1.11° C | 78% | 1020.3 hPa | 0 mm | - | - | - |
| 1777550403 | 1.11° C | 78% | 1020.3 hPa | 0 mm | - | - | - |
| 1777549804 | 1.11° C | 78% | 1020.3 hPa | 0 mm | - | - | - |
| 1777549203 | 1.11° C | 78% | 1020.3 hPa | 0 mm | - | - | - |
| 1777548603 | 1.11° C | 78% | 1020 hPa | 0 mm | - | - | - |
| 1777548003 | 1.11° C | 77% | 1020.1 hPa | 0 mm | - | - | - |
* Rain latest hour (hover to see other rain measurements)
** Current wind speed in m/s (hover to see current wind gust speed)